<?xml version="1.0"?>
<gpx xmlns="http://www.topografix.com/GPX/1/1" xmlns:xsi="http://www.w3.org/2001/XMLSchema-instance" version="1.1" creator="GPX RubyGem 1.0.0 -- http://dougfales.github.io/gpx/" xsi:schemaLocation="http://www.topografix.com/GPX/1/1 http://www.topografix.com/GPX/1/1/gpx.xsd">
  <metadata>
    <name/>
    <time>2026-05-10T13:15:58+00:00</time>
    <bound minlat="90.0" minlon="180.0" maxlat="-90.0" maxlon="-180.0"/>
  </metadata>
  <trk>
    <name/>
    <trkseg>
      <trkpt lat="48.950139" lon="13.048865">
        <time>1970-01-01T00:00:00+00:00</time>
        <ele>729.0</ele>
      </trkpt>
      <trkpt lat="48.95024" lon="13.04903">
        <time>1970-01-01T00:00:00+00:00</time>
        <ele>726.0</ele>
      </trkpt>
      <trkpt lat="48.950433" lon="13.04954">
        <time>1970-01-01T00:00:00+00:00</time>
        <ele>717.0</ele>
      </trkpt>
      <trkpt lat="48.950759" lon="13.050558">
        <time>1970-01-01T00:00:00+00:00</time>
        <ele>712.0</ele>
      </trkpt>
      <trkpt lat="48.95107" lon="13.051126">
        <time>1970-01-01T00:00:00+00:00</time>
        <ele>711.0</ele>
      </trkpt>
      <trkpt lat="48.951348" lon="13.05148">
        <time>1970-01-01T00:00:00+00:00</time>
        <ele>703.0</ele>
      </trkpt>
      <trkpt lat="48.951909" lon="13.051823">
        <time>1970-01-01T00:00:00+00:00</time>
        <ele>693.0</ele>
      </trkpt>
      <trkpt lat="48.952352" lon="13.051903">
        <time>1970-01-01T00:00:00+00:00</time>
        <ele>691.0</ele>
      </trkpt>
      <trkpt lat="48.953398" lon="13.051674">
        <time>1970-01-01T00:00:00+00:00</time>
        <ele>688.0</ele>
      </trkpt>
      <trkpt lat="48.953573" lon="13.051682">
        <time>1970-01-01T00:00:00+00:00</time>
        <ele>686.0</ele>
      </trkpt>
      <trkpt lat="48.954397" lon="13.051894">
        <time>1970-01-01T00:00:00+00:00</time>
        <ele>683.0</ele>
      </trkpt>
      <trkpt lat="48.955195" lon="13.052038">
        <time>1970-01-01T00:00:00+00:00</time>
        <ele>669.0</ele>
      </trkpt>
      <trkpt lat="48.955265" lon="13.051821">
        <time>1970-01-01T00:00:00+00:00</time>
        <ele>668.0</ele>
      </trkpt>
      <trkpt lat="48.955384" lon="13.051653">
        <time>1970-01-01T00:00:00+00:00</time>
        <ele>667.0</ele>
      </trkpt>
      <trkpt lat="48.955973" lon="13.051094">
        <time>1970-01-01T00:00:00+00:00</time>
        <ele>675.0</ele>
      </trkpt>
      <trkpt lat="48.956724" lon="13.050214">
        <time>1970-01-01T00:00:00+00:00</time>
        <ele>684.0</ele>
      </trkpt>
      <trkpt lat="48.957163" lon="13.049442">
        <time>1970-01-01T00:00:00+00:00</time>
        <ele>689.0</ele>
      </trkpt>
      <trkpt lat="48.957445" lon="13.048694">
        <time>1970-01-01T00:00:00+00:00</time>
        <ele>700.0</ele>
      </trkpt>
      <trkpt lat="48.957559" lon="13.048324">
        <time>1970-01-01T00:00:00+00:00</time>
        <ele>705.0</ele>
      </trkpt>
      <trkpt lat="48.957315" lon="13.04837">
        <time>1970-01-01T00:00:00+00:00</time>
        <ele>706.0</ele>
      </trkpt>
      <trkpt lat="48.956942" lon="13.048319">
        <time>1970-01-01T00:00:00+00:00</time>
        <ele>711.0</ele>
      </trkpt>
      <trkpt lat="48.956662" lon="13.048339">
        <time>1970-01-01T00:00:00+00:00</time>
        <ele>715.0</ele>
      </trkpt>
      <trkpt lat="48.955765" lon="13.048486">
        <time>1970-01-01T00:00:00+00:00</time>
        <ele>724.0</ele>
      </trkpt>
      <trkpt lat="48.955539" lon="13.048405">
        <time>1970-01-01T00:00:00+00:00</time>
        <ele>728.0</ele>
      </trkpt>
      <trkpt lat="48.955375" lon="13.04822">
        <time>1970-01-01T00:00:00+00:00</time>
        <ele>732.0</ele>
      </trkpt>
      <trkpt lat="48.955315" lon="13.048115">
        <time>1970-01-01T00:00:00+00:00</time>
        <ele>735.0</ele>
      </trkpt>
      <trkpt lat="48.955181" lon="13.048179">
        <time>1970-01-01T00:00:00+00:00</time>
        <ele>734.0</ele>
      </trkpt>
      <trkpt lat="48.9546" lon="13.048341">
        <time>1970-01-01T00:00:00+00:00</time>
        <ele>735.0</ele>
      </trkpt>
      <trkpt lat="48.954416" lon="13.048334">
        <time>1970-01-01T00:00:00+00:00</time>
        <ele>739.0</ele>
      </trkpt>
      <trkpt lat="48.954272" lon="13.048367">
        <time>1970-01-01T00:00:00+00:00</time>
        <ele>742.0</ele>
      </trkpt>
      <trkpt lat="48.954045" lon="13.048463">
        <time>1970-01-01T00:00:00+00:00</time>
        <ele>744.0</ele>
      </trkpt>
      <trkpt lat="48.953791" lon="13.048417">
        <time>1970-01-01T00:00:00+00:00</time>
        <ele>747.0</ele>
      </trkpt>
      <trkpt lat="48.953628" lon="13.048306">
        <time>1970-01-01T00:00:00+00:00</time>
        <ele>749.0</ele>
      </trkpt>
      <trkpt lat="48.95349" lon="13.048169">
        <time>1970-01-01T00:00:00+00:00</time>
        <ele>751.0</ele>
      </trkpt>
      <trkpt lat="48.953042" lon="13.047623">
        <time>1970-01-01T00:00:00+00:00</time>
        <ele>770.0</ele>
      </trkpt>
      <trkpt lat="48.952813" lon="13.047311">
        <time>1970-01-01T00:00:00+00:00</time>
        <ele>781.0</ele>
      </trkpt>
      <trkpt lat="48.952751" lon="13.047316">
        <time>1970-01-01T00:00:00+00:00</time>
        <ele>780.0</ele>
      </trkpt>
      <trkpt lat="48.952751" lon="13.047316">
        <time>1970-01-01T00:00:00+00:00</time>
        <ele>780.0</ele>
      </trkpt>
      <trkpt lat="48.952813" lon="13.047311">
        <time>1970-01-01T00:00:00+00:00</time>
        <ele>781.0</ele>
      </trkpt>
      <trkpt lat="48.953042" lon="13.047623">
        <time>1970-01-01T00:00:00+00:00</time>
        <ele>770.0</ele>
      </trkpt>
      <trkpt lat="48.95349" lon="13.048169">
        <time>1970-01-01T00:00:00+00:00</time>
        <ele>751.0</ele>
      </trkpt>
      <trkpt lat="48.953628" lon="13.048306">
        <time>1970-01-01T00:00:00+00:00</time>
        <ele>749.0</ele>
      </trkpt>
      <trkpt lat="48.953791" lon="13.048417">
        <time>1970-01-01T00:00:00+00:00</time>
        <ele>747.0</ele>
      </trkpt>
      <trkpt lat="48.954045" lon="13.048463">
        <time>1970-01-01T00:00:00+00:00</time>
        <ele>744.0</ele>
      </trkpt>
      <trkpt lat="48.954272" lon="13.048367">
        <time>1970-01-01T00:00:00+00:00</time>
        <ele>742.0</ele>
      </trkpt>
      <trkpt lat="48.954416" lon="13.048334">
        <time>1970-01-01T00:00:00+00:00</time>
        <ele>739.0</ele>
      </trkpt>
      <trkpt lat="48.9546" lon="13.048341">
        <time>1970-01-01T00:00:00+00:00</time>
        <ele>735.0</ele>
      </trkpt>
      <trkpt lat="48.955181" lon="13.048179">
        <time>1970-01-01T00:00:00+00:00</time>
        <ele>734.0</ele>
      </trkpt>
      <trkpt lat="48.955315" lon="13.048115">
        <time>1970-01-01T00:00:00+00:00</time>
        <ele>735.0</ele>
      </trkpt>
      <trkpt lat="48.955375" lon="13.04822">
        <time>1970-01-01T00:00:00+00:00</time>
        <ele>732.0</ele>
      </trkpt>
      <trkpt lat="48.955539" lon="13.048405">
        <time>1970-01-01T00:00:00+00:00</time>
        <ele>728.0</ele>
      </trkpt>
      <trkpt lat="48.955765" lon="13.048486">
        <time>1970-01-01T00:00:00+00:00</time>
        <ele>724.0</ele>
      </trkpt>
      <trkpt lat="48.956662" lon="13.048339">
        <time>1970-01-01T00:00:00+00:00</time>
        <ele>715.0</ele>
      </trkpt>
      <trkpt lat="48.956942" lon="13.048319">
        <time>1970-01-01T00:00:00+00:00</time>
        <ele>711.0</ele>
      </trkpt>
      <trkpt lat="48.957315" lon="13.04837">
        <time>1970-01-01T00:00:00+00:00</time>
        <ele>706.0</ele>
      </trkpt>
      <trkpt lat="48.957559" lon="13.048324">
        <time>1970-01-01T00:00:00+00:00</time>
        <ele>705.0</ele>
      </trkpt>
      <trkpt lat="48.957445" lon="13.048694">
        <time>1970-01-01T00:00:00+00:00</time>
        <ele>700.0</ele>
      </trkpt>
      <trkpt lat="48.957163" lon="13.049442">
        <time>1970-01-01T00:00:00+00:00</time>
        <ele>689.0</ele>
      </trkpt>
      <trkpt lat="48.956724" lon="13.050214">
        <time>1970-01-01T00:00:00+00:00</time>
        <ele>684.0</ele>
      </trkpt>
      <trkpt lat="48.955973" lon="13.051094">
        <time>1970-01-01T00:00:00+00:00</time>
        <ele>675.0</ele>
      </trkpt>
      <trkpt lat="48.955384" lon="13.051653">
        <time>1970-01-01T00:00:00+00:00</time>
        <ele>667.0</ele>
      </trkpt>
      <trkpt lat="48.955265" lon="13.051821">
        <time>1970-01-01T00:00:00+00:00</time>
        <ele>668.0</ele>
      </trkpt>
      <trkpt lat="48.955195" lon="13.052038">
        <time>1970-01-01T00:00:00+00:00</time>
        <ele>669.0</ele>
      </trkpt>
      <trkpt lat="48.954397" lon="13.051894">
        <time>1970-01-01T00:00:00+00:00</time>
        <ele>683.0</ele>
      </trkpt>
      <trkpt lat="48.953573" lon="13.051682">
        <time>1970-01-01T00:00:00+00:00</time>
        <ele>686.0</ele>
      </trkpt>
      <trkpt lat="48.953398" lon="13.051674">
        <time>1970-01-01T00:00:00+00:00</time>
        <ele>688.0</ele>
      </trkpt>
      <trkpt lat="48.952352" lon="13.051903">
        <time>1970-01-01T00:00:00+00:00</time>
        <ele>691.0</ele>
      </trkpt>
      <trkpt lat="48.951909" lon="13.051823">
        <time>1970-01-01T00:00:00+00:00</time>
        <ele>693.0</ele>
      </trkpt>
      <trkpt lat="48.951348" lon="13.05148">
        <time>1970-01-01T00:00:00+00:00</time>
        <ele>703.0</ele>
      </trkpt>
      <trkpt lat="48.95107" lon="13.051126">
        <time>1970-01-01T00:00:00+00:00</time>
        <ele>711.0</ele>
      </trkpt>
      <trkpt lat="48.950759" lon="13.050558">
        <time>1970-01-01T00:00:00+00:00</time>
        <ele>712.0</ele>
      </trkpt>
      <trkpt lat="48.950433" lon="13.04954">
        <time>1970-01-01T00:00:00+00:00</time>
        <ele>717.0</ele>
      </trkpt>
      <trkpt lat="48.95024" lon="13.04903">
        <time>1970-01-01T00:00:00+00:00</time>
        <ele>726.0</ele>
      </trkpt>
      <trkpt lat="48.950139" lon="13.048865">
        <time>1970-01-01T00:00:00+00:00</time>
        <ele>729.0</ele>
      </trkpt>
    </trkseg>
  </trk>
</gpx>
